User: anonymous   Login
Location: Unspecified
(0.0000°N, 0.0000°E)
Time: 18:05:46
(UTC+00:00)
Language:

TBA - TO BE ASSIGNED - Orbit

View from above orbital plane
View from above orbital plane
View from above satellite
View from above satellite

Ground track
Ground track

The orbit is defined by the following mean orbital elements,

1 68847U          26145.00208992 +.00000000 +00000-0 +93951-3 0 00004
2 68847  97.2851 159.5970 0001392 100.8167 259.3241 15.49233866    04
Epoch (UTC): 25 May 2026 00:03:00
Eccentricity: 0.0001392
inclination: 97.2851°
perigee height: 418 km
apogee height: 420 km
right ascension of ascending node: 159.5970°
argument of perigee: 100.8167°
revolutions per day: 15.49233866
mean anomaly at epoch: 259.3241°

The dashed part of the orbit path shows where the satellite is in the earth's shadow,  

DLR